FW1937 Weather Reports


Display with metric or nautical units.
time (UTC)temp
F
wind
direction
speed
MPH
gust
MPH
rain 1hr
in
rain 24hr
in
rain mn
in
humidity
%
barometer
mb
20260510115920 72 348 3.0 6.0 0.00 0.00 0.00 92 1002.5
20260510115152 72 12 5.0 11.0 0.00 0.00 0.00 93 1002.6
20260510114651 72 5 5.0 11.0 0.00 0.00 0.00 92 1002.5
20260510114419 72 337 3.0 9.0 0.00 0.00 0.00 93 1002.6
20260510113652 72 287 3.0 10.0 0.00 0.00 0.00 94 1002.7
20260510113417 71 302 4.0 10.0 0.00 0.00 0.00 92 1002.7
20260510112653 71 331 6.0 13.0 0.00 0.00 0.00 92 1002.8
20260510112152 72 306 6.0 13.0 0.00 0.00 0.00 91 1002.8
20260510111152 72 171 7.0 13.0 0.00 0.00 0.00 90 1003.0
20260510110651 72 148 8.0 14.0 0.00 0.00 0.00 88 1003.2
20260510110151 73 128 7.0 14.0 0.00 0.00 0.00 90 1003.2
20260510105652 73 169 7.0 17.0 0.00 0.00 0.00 89 1003.3
20260510104651 72 108 7.0 13.0 0.00 0.00 0.00 93 1003.5
20260510104151 71 150 10.0 21.0 0.00 0.00 0.00 92 1003.5
20260510103651 71 249 11.0 21.0 0.00 0.00 0.00 92 1003.4
20260510103414 71 172 12.0 20.0 0.00 0.00 0.00 91 1003.5
20260510102920 71 130 10.0 20.0 0.00 0.00 0.00 91 1003.4
20260510102151 71 109 10.0 20.0 0.00 0.00 0.00 91 1003.5
20260510101651 71 145 8.0 20.0 0.00 0.00 0.00 92 1003.5
20260510101151 71 103 5.0 14.0 0.00 0.00 0.00 93 1003.5
20260510100651 71 167 4.0 11.0 0.00 0.00 0.00 93 1003.5
20260510100151 71 209 4.0 11.0 0.00 0.00 0.00 93 1003.5
20260510095922 71 213 4.0 16.0 0.00 0.00 0.00 93 1003.5
20260510095152 71 187 7.0 16.0 0.00 0.00 0.00 94 1003.5
20260510094917 71 156 9.0 17.0 0.00 0.00 0.00 92 1003.5
20260510094152 71 151 9.0 17.0 0.00 0.00 0.00 92 1003.5
20260510093651 71 142 8.0 16.0 0.00 0.00 0.00 93 1003.6
20260510093412 71 139 6.0 16.0 0.00 0.00 0.00 92 1003.6
20260510092908 71 130 6.0 15.0 0.00 0.00 0.00 93 1003.6
20260510092149 71 193 7.0 15.0 0.00 0.00 0.00 93 1003.6
20260510091649 70 185 7.0 15.0 0.00 0.00 0.00 94 1003.5
20260510090647 70 225 7.0 15.0 0.00 0.00 0.00 94 1003.6
20260510090411 70 223 6.0 15.0 0.00 0.00 0.00 94 1003.6
20260510085647 70 166 6.0 14.0 0.00 0.00 0.00 95 1003.6
20260510084647 69 202 7.0 14.0 0.00 0.00 0.00 96 1003.7
20260510084408 69 200 8.0 21.0 0.00 0.00 0.00 96 1003.6
20260510083647 69 192 9.0 21.0 0.00 0.00 0.00 97 1003.6
20260510083405 68 180 7.0 16.0 0.00 0.00 0.00 97 1003.5
20260510082647 68 173 7.0 16.0 0.00 0.00 0.00 98 1003.6
20260510081648 67 231 7.0 13.0 0.00 0.00 0.00 98 1003.6
20260510081407 67 199 7.0 15.0 0.00 0.00 0.00 98 1003.5
20260510080648 67 245 7.0 15.0 0.00 0.00 0.00 98 1009.6
20260510080148 67 162 7.0 14.0 0.00 0.00 0.00 98 1003.4
20260510075648 67 184 6.0 14.0 0.00 0.00 0.00 99 1003.4
20260510075148 67 194 5.0 13.0 0.00 0.00 0.00 99 1003.3
20260510074648 67 178 6.0 13.0 0.00 0.00 0.00 99 1003.3
20260510074418 67 147 7.0 13.0 0.00 0.00 0.00 99 1003.3
20260510073647 67 192 8.0 13.0 0.00 0.00 0.00 99 1003.1
20260510073148 67 194 8.0 11.0 0.00 0.00 0.00 100 1003.1
20260510072647 66 204 9.0 17.0 0.00 0.00 0.00 100 1003.0
20260510072147 66 157 10.0 17.0 0.00 0.00 0.00 100 1002.9
20260510071647 66 192 10.0 16.0 0.00 0.00 0.00 100 1002.9
20260510071147 66 226 10.0 18.0 0.00 0.00 0.00 100 1002.8
20260510070647 66 223 10.0 18.0 0.00 0.00 0.00 100 1002.8
20260510070148 65 166 10.0 17.0 0.00 0.00 0.00 100 1002.6
20260510065648 65 170 9.0 17.0 0.00 0.00 0.00 100 1002.6
20260510065404 65 157 8.0 16.0 0.00 0.00 0.00 100 1002.6
20260510064648 65 232 7.0 16.0 0.00 0.00 0.00 100 1002.4
20260510064405 65 202 8.0 16.0 0.00 0.00 0.00 100 1002.6
20260510063648 65 169 9.0 16.0 0.00 0.00 0.00 100 1002.5
20260510063148 64 192 8.0 16.0 0.00 0.00 0.00 100 1002.5
20260510062648 64 189 8.0 15.0 0.00 0.00 0.00 100 1002.4
20260510062148 64 180 7.0 15.0 0.00 0.00 0.00 100 1002.3
20260510061148 64 203 8.0 15.0 0.00 0.00 0.00 100 1008.6
20260510060648 64 168 8.0 15.0 0.00 0.00 0.00 100 1002.2
20260510060147 64 196 10.0 17.0 0.00 0.00 0.00 100 1002.1
20260510055147 64 150 10.0 16.0 0.00 0.00 0.00 100 1002.1
20260510054414 64 181 11.0 18.0 0.00 0.00 0.00 100 1002.1
20260510053648 64 150 10.0 15.0 0.00 0.00 0.00 100 1002.1
20260510053148 64 171 8.0 15.0 0.00 0.00 0.00 100 1002.1
20260510052148 64 167 9.0 15.0 0.00 0.00 0.00 100 1002.1
20260510051648 64 180 9.0 15.0 0.00 0.00 0.00 99 1002.0
20260510051148 64 166 9.0 16.0 0.00 0.00 0.00 99 1001.9
20260510050647 64 167 10.0 18.0 0.00 0.00 0.00 99 1001.9
20260510050147 63 163 10.0 18.0 0.00 0.00 0.00 98 1002.0
20260510045147 63 166 8.0 15.0 0.00 0.00 0.00 98 1001.9
20260510044147 63 161 6.0 11.0 0.00 0.00 0.00 98 1002.0
20260510043648 64 119 6.0 11.0 0.00 0.00 0.00 98 1002.0
20260510043148 64 128 6.0 10.0 0.00 0.00 0.00 99 1002.0
20260510042647 64 139 6.0 11.0 0.00 0.00 0.00 99 1002.0
20260510042147 64 115 7.0 11.0 0.00 0.00 0.00 99 1002.0
20260510041647 64 137 9.0 16.0 0.00 0.00 0.00 100 1002.0
20260510041147 64 169 10.0 16.0 0.00 0.00 0.00 99 1002.1
20260510040647 64 177 9.0 14.0 0.00 0.00 0.00 99 1002.1
20260510040148 64 171 8.0 16.0 0.00 0.00 0.00 100 1002.1
20260510035647 64 128 8.0 16.0 0.00 0.00 0.00 100 1002.1
20260510035147 64 186 8.0 14.0 0.00 0.00 0.00 100 1002.1
20260510034647 65 157 8.0 13.0 0.00 0.00 0.00 100 1002.1
20260510034147 65 153 7.0 13.0 0.00 0.00 0.00 100 1002.1
20260510033649 65 182 7.0 12.0 0.00 0.00 0.00 100 1002.1
20260510033147 65 121 7.0 12.0 0.00 0.00 0.00 100 1002.1
20260510032648 65 178 8.0 12.0 0.00 0.00 0.00 100 1002.1
20260510032147 65 184 9.0 10.0 0.00 0.00 0.00 100 1002.0
20260510031647 65 177 9.0 15.0 0.00 0.00 0.00 99 1002.1
20260510031147 65 188 9.0 15.0 0.00 0.00 0.00 99 1002.0
20260510030907 65 163 10.0 17.0 0.00 0.00 0.00 99 1002.1
20260510030147 65 188 11.0 18.0 0.00 0.00 0.00 99 1002.0
20260510025648 65 186 9.0 18.0 0.00 0.00 0.00 99 1002.0
20260510025147 65 152 8.0 15.0 0.00 0.00 0.00 99 1001.9
20260510024647 65 171 6.0 11.0 0.00 0.00 0.00 99 1001.9
20260510024147 65 150 6.0 10.0 0.00 0.00 0.00 99 1002.0
20260510023647 65 135 6.0 10.0 0.00 0.00 0.00 99 1001.9
20260510023147 65 180 7.0 15.0 0.00 0.00 0.00 99 1001.9
20260510022904 65 166 6.0 15.0 0.00 0.00 0.00 99 1002.0
20260510022137 65 148 5.0 11.0 0.00 0.00 0.00 99 1002.0
20260510021638 65 188 6.0 9.0 0.00 0.00 0.00 99 1002.0
20260510021138 65 143 7.0 12.0 0.00 0.00 0.00 99 1002.1
20260510020638 65 178 7.0 12.0 0.00 0.00 0.00 99 1008.3
20260510020137 65 144 7.0 17.0 0.00 0.00 0.00 99 1002.1
20260510015637 65 112 7.0 17.0 0.00 0.00 0.00 99 1002.1
20260510015137 65 152 7.0 14.0 0.00 0.00 0.00 99 1002.0
20260510014637 65 184 7.0 16.0 0.00 0.00 0.00 99 1002.0
20260510014138 65 146 6.0 16.0 0.00 0.00 0.00 99 1002.0
20260510013638 65 167 6.0 11.0 0.00 0.00 0.00 100 1002.0
20260510013137 65 147 6.0 11.0 0.00 0.00 0.00 100 1002.0
20260510012638 65 168 7.0 11.0 0.00 0.00 0.00 100 1002.1
20260510012137 65 149 6.0 11.0 0.00 0.00 0.00 100 1002.1
20260510011638 65 171 5.0 13.0 0.00 0.00 0.00 100 1002.1
20260510011138 65 138 7.0 13.0 0.00 0.00 0.00 100 1002.2
20260510010637 65 145 9.0 19.0 0.00 0.00 0.00 100 1002.2
20260510010400 65 170 9.0 19.0 0.00 0.00 0.00 100 1002.2
20260510005638 66 171 11.0 11.0 0.00 0.00 0.00 100 1002.2
20260510005138 66 163 12.0 22.0 0.00 0.00 0.00 100 1002.2
20260510004138 66 132 10.0 24.0 0.00 0.00 0.00 100 1002.1
20260510003637 66 171 11.0 24.0 0.00 0.00 0.00 100 1002.0
20260510003138 66 155 10.0 18.0 0.00 0.00 0.00 100 1002.1
20260510002636 66 154 10.0 16.0 0.00 0.00 0.00 100 1002.0
20260510002137 66 157 10.0 22.0 0.00 0.00 0.00 100 1002.0
20260510001635 66 132 9.0 20.0 0.00 0.00 0.00 100 1008.3
20260510001135 67 150 9.0 20.0 0.00 0.00 0.00 100 1002.0
20260510000634 67 141 10.0 24.0 0.00 0.00 0.00 100 1002.0
20260510000132 67 171 11.0 24.0 0.00 0.00 0.00 100 1002.0
20260509235633 67 183 11.0 25.0 0.00 0.00 0.00 100 1002.1
20260509235134 67 98 11.0 25.0 0.00 0.00 0.00 100 1002.1
20260509234631 67 123 11.0 23.0 0.00 0.00 0.00 100 1002.1
20260509234125 67 169 10.0 19.0 0.00 0.00 0.00 100 1002.1
20260509233622 67 145 10.0 19.0 0.00 0.00 0.00 100 1002.1
20260509233121 67 172 10.0 18.0 0.00 0.00 0.00 100 1001.9
20260509232623 67 200 9.0 18.0 0.00 0.00 0.00 100 1002.0
20260509232133 67 186 8.0 12.0 0.00 0.00 0.00 100 1002.1
20260509231623 67 190 8.0 18.0 0.00 0.00 0.00 100 1002.1
20260509231120 67 105 8.0 18.0 0.00 0.00 0.00 100 1002.1
20260509230622 67 158 9.0 17.0 0.00 0.00 0.00 100 1002.2
20260509230121 67 174 7.0 15.0 0.00 0.00 0.00 100 1002.3
20260509225624 67 182 6.0 13.0 0.00 0.00 0.00 100 1002.4
20260509225121 67 128 6.0 13.0 0.00 0.00 0.00 100 1002.4
20260509224624 67 126 7.0 15.0 0.00 0.00 0.00 100 1002.4
20260509224120 67 145 8.0 15.0 0.00 0.00 0.00 100 1002.4
20260509223847 67 132 7.0 14.0 0.00 0.00 0.00 100 1002.4
20260509223336 66 161 4.0 12.0 0.00 0.00 0.00 100 1002.5
20260509222623 66 158 3.0 11.0 0.00 0.00 0.00 100 1002.6
20260509222120 66 125 5.0 11.0 0.00 0.00 0.00 100 1002.6
20260509221623 66 159 6.0 10.0 0.00 0.00 0.00 100 1002.6
20260509221121 66 121 5.0 11.0 0.00 0.00 0.00 100 1002.6
20260509220627 65 145 3.0 11.0 0.00 0.00 0.00 100 1002.6
20260509220121 66 90 2.0 7.0 0.00 0.00 0.00 100 1002.6
20260509215619 66 99 2.0 5.0 0.00 0.00 0.00 100 1002.8
20260509215332 67 146 1.0 4.0 0.00 0.00 0.00 100 1002.8
20260509214615 67 271 1.0 2.0 0.00 0.00 0.00 100 1002.7
20260509214113 67 271 1.0 3.0 0.00 0.00 0.00 100 1002.7
20260509213845 67 271 1.0 3.0 0.00 0.00 0.00 100 1002.7
20260509213112 67 268 1.0 4.0 0.00 0.00 0.00 100 1002.6
20260509212615 67 268 2.0 4.0 0.00 0.00 0.00 100 1002.6
20260509212114 68 269 2.0 9.0 0.00 0.00 0.00 100 1002.5
20260509211843 68 242 4.0 9.0 0.00 0.00 0.00 100 1002.4
20260509211114 68 183 5.0 9.0 0.00 0.00 0.00 100 1002.5
20260509210617 68 153 7.0 12.0 0.00 0.00 0.00 100 1002.4
20260509210115 68 148 6.0 12.0 0.00 0.00 0.00 100 1002.5
20260509205620 68 170 3.0 11.0 0.00 0.00 0.00 100 1002.5
20260509205114 68 136 3.0 9.0 0.00 0.00 0.00 100 1002.5
20260509204617 69 98 3.0 10.0 0.00 0.00 0.00 100 1002.6
20260509204113 69 148 3.0 10.0 0.00 0.00 0.00 100 1002.5
20260509203614 69 131 6.0 8.0 0.00 0.00 0.00 100 1002.6
20260509203111 69 123 7.0 15.0 0.00 0.00 0.00 100 1002.5
20260509202842 69 138 4.0 15.0 0.00 0.00 0.00 99 1002.5
20260509202111 69 121 1.0 4.0 0.00 0.00 0.00 100 1002.5
20260509201112 70 80 3.0 15.0 0.00 0.00 0.00 100 1002.4
20260509200851 70 126 6.0 15.0 0.00 0.00 0.00 99 1002.3
20260509200113 70 172 7.0 15.0 0.00 0.00 0.00 99 1002.2
20260509195615 70 105 5.0 15.0 0.00 0.00 0.00 99 1002.1
20260509195111 70 61 4.0 9.0 0.00 0.00 0.00 99 1002.0
20260509194614 70 113 4.0 9.0 0.00 0.00 0.00 99 1002.0
20260509194112 70 126 4.0 9.0 0.00 0.00 0.00 98 1002.1
20260509193615 71 101 4.0 9.0 0.00 0.00 0.00 98 1002.2
20260509193112 71 113 5.0 9.0 0.00 0.00 0.00 98 1002.2
20260509192614 71 111 5.0 11.0 0.00 0.00 0.00 97 1002.1
20260509192111 71 139 6.0 11.0 0.00 0.00 0.00 97 1002.2
20260509191614 71 140 5.0 10.0 0.00 0.00 0.00 97 1002.2
20260509191111 71 101 5.0 10.0 0.00 0.00 0.00 97 1002.1
20260509190614 71 92 5.0 10.0 0.00 0.00 0.00 97 1002.0
20260509190111 71 138 5.0 9.0 0.00 0.00 0.00 97 1002.0
20260509185614 71 96 6.0 15.0 0.00 0.00 0.00 96 1001.9
20260509185110 71 174 6.0 15.0 0.00 0.00 0.00 96 1001.9
20260509184607 71 143 7.0 15.0 0.00 0.00 0.00 97 1001.9
20260509184107 71 109 7.0 15.0 0.00 0.00 0.00 97 1001.9
20260509183827 71 121 6.0 15.0 0.00 0.00 0.00 97 1001.9
20260509183106 71 119 4.0 15.0 0.00 0.00 0.00 99 1001.9
20260509182823 71 74 2.0 6.0 0.00 0.00 0.00 100 1001.8
20260509182106 72 118 2.0 5.0 0.00 0.00 0.00 100 1001.9
20260509181606 72 73 1.0 4.0 0.00 0.00 0.00 100 1001.8
20260509181120 72 117 0.0 3.0 0.00 0.00 0.00 100 1001.8
20260509180601 72 117 0.0 3.0 0.00 0.00 0.00 100 1001.7
20260509175556 73 118 1.0 2.0 0.00 0.00 0.00 99 1001.6
20260509175322 73 118 1.0 6.0 0.00 0.00 0.00 98 1001.5
20260509174556 73 118 2.0 6.0 0.00 0.00 0.00 97 1001.5
20260509174049 73 108 2.0 8.0 0.00 0.00 0.00 97 1001.4
20260509173812 73 105 2.0 8.0 0.00 0.00 0.00 96 1001.3
20260509173311 73 281 1.0 6.0 0.00 0.00 0.00 97 1001.3
20260509172816 73 136 1.0 3.0 0.00 0.02 0.00 96 1001.3
20260509172048 73 136 1.0 4.0 0.00 0.03 0.00 97 1001.4
20260509171543 73 135 1.0 4.0 0.00 0.05 0.00 96 1001.3
20260509171053 73 135 2.0 7.0 0.00 0.06 0.00 96 1001.2
20260509170534 73 134 3.0 7.0 0.00 0.06 0.00 96 1001.1
20260509170033 73 134 3.0 6.0 0.00 0.06 0.00 96 1001.1
20260509165533 73 148 4.0 9.0 0.00 0.06 0.00 96 1001.0
20260509165034 73 175 4.0 9.0 0.00 0.06 0.00 96 1001.0
20260509164534 73 142 5.0 11.0 0.00 0.06 0.00 96 1001.0
20260509164033 73 134 5.0 11.0 0.00 0.06 0.00 95 1001.0
20260509163533 73 135 5.0 14.0 0.00 0.06 0.00 95 1001.0
20260509163033 73 126 6.0 14.0 0.00 0.06 0.00 95 1001.1
20260509162753 73 166 8.0 12.0 0.00 0.06 0.00 94 1001.0
20260509162252 73 161 8.0 15.0 0.00 0.06 0.00 94 1001.0
20260509161754 73 165 8.0 15.0 0.00 0.06 0.00 95 1001.1
20260509161033 73 196 7.0 13.0 0.00 0.06 0.00 95 1001.2
20260509160533 73 168 7.0 14.0 0.00 0.06 0.00 94 1001.2
20260509160033 73 157 8.0 14.0 0.00 0.06 0.00 93 1001.2
20260509155534 74 132 6.0 11.0 0.00 0.06 0.00 94 1001.1
20260509155033 74 161 6.0 11.0 0.00 0.06 0.00 94 1001.1
20260509154534 74 142 7.0 13.0 0.00 0.06 0.00 94 1001.2
20260509154034 74 166 7.0 13.0 0.00 0.06 0.00 94 1001.2
20260509153534 74 139 6.0 14.0 0.00 0.06 0.00 94 1001.1
20260509153033 74 123 8.0 14.0 0.00 0.06 0.00 94 1001.2
20260509152534 74 182 8.0 16.0 0.00 0.06 0.00 94 1001.3
20260509152033 74 163 7.0 16.0 0.00 0.06 0.00 94 1001.3
20260509151533 74 130 7.0 12.0 0.00 0.06 0.00 94 1001.3
20260509151033 74 126 7.0 18.0 0.00 0.06 0.00 94 1001.3
20260509150533 74 115 7.0 18.0 0.00 0.06 0.00 93 1001.4
20260509150033 74 180 6.0 12.0 0.00 0.06 0.00 95 1001.4
20260509145758 74 111 6.0 12.0 0.00 0.06 0.00 94 1001.3
20260509145034 74 129 6.0 12.0 0.00 0.06 0.00 95 1001.3
20260509144534 74 104 8.0 16.0 0.00 0.06 0.00 95 1001.4
20260509144033 74 124 8.0 16.0 0.00 0.06 0.00 96 1001.4
20260509143533 74 80 7.0 15.0 0.00 0.06 0.00 96 1001.5
20260509143033 73 117 7.0 13.0 0.00 0.06 0.00 96 1001.5
20260509142754 73 163 7.0 13.0 0.00 0.06 0.00 97 1001.6
20260509142033 73 108 9.0 11.0 0.00 0.06 0.00 95 1001.7
20260509141533 73 196 10.0 17.0 0.00 0.06 0.00 95 1001.7
20260509141033 73 123 11.0 19.0 0.00 0.06 0.00 95 1001.7
20260509140534 73 154 10.0 19.0 0.00 0.06 0.00 95 1002.0
20260509140033 73 197 10.0 18.0 0.00 0.06 0.00 94 1002.1
20260509135534 73 134 8.0 16.0 0.00 0.06 0.00 94 1002.0
20260509135033 73 157 9.0 18.0 0.00 0.06 0.00 94 1002.0
20260509134755 73 163 10.0 18.0 0.00 0.06 0.00 94 1001.9
20260509134032 73 165 9.0 17.0 0.00 0.06 0.00 94 1001.9
20260509133532 73 98 9.0 16.0 0.00 0.06 0.00 93 1002.1
20260509133031 72 138 9.0 16.0 0.00 0.06 0.00 92 1002.0
20260509132532 72 172 9.0 16.0 0.00 0.06 0.00 92 1002.1
20260509132031 72 107 9.0 14.0 0.00 0.06 0.00 92 1002.1
20260509131532 71 122 9.0 15.0 0.00 0.06 0.00 92 1002.2
20260509131256 71 116 9.0 15.0 0.00 0.06 0.00 92 1002.3
20260509130532 71 119 9.0 14.0 0.00 0.06 0.00 92 1002.4
20260509130031 71 116 9.0 17.0 0.00 0.06 0.00 92 1002.3
20260509125532 70 126 9.0 17.0 0.00 0.06 0.00 92 1002.6
20260509125031 70 128 10.0 17.0 0.00 0.06 0.00 92 1002.6
20260509124531 70 163 10.0 17.0 0.00 0.06 0.00 92 1002.6
20260509124032 70 123 10.0 22.0 0.00 0.06 0.00 92 1002.6
20260509123531 70 140 12.0 22.0 0.00 0.06 0.00 92 1002.9
20260509123031 70 161 12.0 25.0 0.00 0.06 0.00 92 1002.9
20260509122532 70 161 12.0 25.0 0.00 0.06 0.00 91 1002.9
20260509122031 70 130 14.0 27.0 0.00 0.06 0.00 91 1002.8
20260509121532 70 144 13.0 27.0 0.00 0.06 0.00 91 1002.9
20260509121032 70 192 11.0 20.0 0.00 0.06 0.00 91 1002.8
20260509120531 69 149 10.0 20.0 0.00 0.06 0.00 91 1002.9
20260509120031 69 162 10.0 18.0 0.00 0.06 0.00 91 1003.0